,,Stat6,,Stat2,,Stat8,,Stat9,,Stat10,,Wind1,,Wind1,
time,status,PA1M_AVG,status,PR1M_SUM,status,RH1M_AVG,status,SR1M_AVG,status,TA1M_AVG,status,W1dAve1m,status,W1sAve1m,
2004-11-27, 00:00:00,VALID,918.627,VALID,0,VALID,98.59,VALID,-0.0339617,VALID,20.3109,VALID,125,VALID,2.44473,
2004-11-27, 00:01:00,VALID,918.62,VALID,0,VALID,98.3637,VALID,-0.0169808,VALID,20.3566,VALID,121,VALID,1.98212,
2004-11-27, 00:02:00,VALID,918.636,VALID,0,VALID,98.2124,VALID,0.101885,VALID,20.3747,VALID,125,VALID,1.77695,
2004-11-27, 00:03:00,VALID,918.633,VALID,0,VALID,98.0992,VALID,0.0849042,VALID,20.371,VALID,115,VALID,1.56383,
2004-11-27, 00:04:00,VALID,918.631,VALID,0,VALID,97.8983,VALID,0.0679233,VALID,20.3774,VALID,108,VALID,1.88172,
2004-11-27, 00:05:00,VALID,918.63,VALID,0,VALID,97.7368,VALID,0.101885,VALID,20.3834,VALID,125,VALID,1.51935,
2004-11-27, 00:06:00,VALID,918.624,VALID,0,VALID,97.6758,VALID,0.0679233,VALID,20.4127,VALID,113,VALID,1.63626,
2004-11-27, 00:07:00,VALID,918.616,VALID,0,VALID,97.6058,VALID,0.0849042,VALID,20.4065,VALID,108,VALID,1.40067,
2004-11-27, 00:08:00,VALID,918.619,VALID,0,VALID,97.4977,VALID,0.0849042,VALID,20.4162,VALID,105,VALID,1.72303,
2004-11-27, 00:09:00,VALID,918.614,VALID,0,VALID,97.4253,VALID,0.101885,VALID,20.396,VALID,100,VALID,1.71715,
2004-11-27, 00:10:00,VALID,918.6,VALID,0,VALID,97.5003,VALID,0.101885,VALID,20.4127,VALID,98,VALID,1.45712,
2004-11-27, 00:11:00,VALID,918.596,VALID,0,VALID,97.4787,VALID,0.101885,VALID,20.41,VALID,105,VALID,1.73581,
2004-11-27, 00:12:00,VALID,918.616,VALID,0,VALID,97.4354,VALID,0.101885,VALID,20.4068,VALID,109,VALID,1.77273,
2004-11-27, 00:13:00,VALID,918.625,VALID,0,VALID,97.3515,VALID,0.101885,VALID,20.4063,VALID,99,VALID,1.48928,
2004-11-27, 00:14:00,VALID,918.625,VALID,0,VALID,97.4202,VALID,0.101885,VALID,20.3968,VALID,76,VALID,1.35719,
2004-11-27, 00:15:00,VALID,918.629,VALID,0,VALID,97.56,VALID,0.101885,VALID,20.367,VALID,87,VALID,1.52402,
2004-11-27, 00:16:00,VALID,918.632,VALID,0,VALID,97.6719,VALID,0.0849042,VALID,20.3677,VALID,90,VALID,1.13228,
2004-11-27, 00:17:00,VALID,918.627,VALID,0,VALID,97.5766,VALID,0,VALID,20.3467,VALID,80,VALID,1.68574,
2004-11-27, 00:18:00,VALID,918.633,VALID,0,VALID,97.4672,VALID,0.0169808,VALID,20.3623,VALID,93,VALID,1.43205,
2004-11-27, 00:19:00,VALID,918.642,VALID,0,VALID,97.3604,VALID,0,VALID,20.3591,VALID,96,VALID,1.74833,
2004-11-27, 00:20:00,VALID,918.643,VALID,0,VALID,97.4291,VALID,0.0169808,VALID,20.379,VALID,108,VALID,1.77237,
2004-11-27, 00:21:00,VALID,918.629,VALID,0,VALID,97.4443,VALID,0,VALID,20.3884,VALID,92,VALID,1.45938,
2004-11-27, 00:22:00,VALID,918.607,VALID,0,VALID,97.4151,VALID,-0.0169808,VALID,20.4046,VALID,108,VALID,1.65391,
2004-11-27, 00:23:00,VALID,918.612,VALID,0,VALID,97.485,VALID,0,VALID,20.4038,VALID,98,VALID,1.50156,
2004-11-27, 00:24:00,VALID,918.613,VALID,0,VALID,97.5918,VALID,0.0169808,VALID,20.3951,VALID,94,VALID,1.56667,
2004-11-27, 00:25:00,VALID,918.617,VALID,0,VALID,97.6313,VALID,0,VALID,20.3553,VALID,102,VALID,1.61179,
2004-11-27, 00:26:00,VALID,918.594,VALID,0,VALID,97.8195,VALID,0.0169808,VALID,20.3394,VALID,118,VALID,1.36242,
2004-11-27, 00:27:00,VALID,918.59,VALID,0,VALID,97.869,VALID,0,VALID,20.3432,VALID,90,VALID,0.985465,
2004-11-27, 00:28:00,VALID,918.58,VALID,0,VALID,97.9924,VALID,0,VALID,20.3233,VALID,84,VALID,1.19354,
2004-11-27, 00:29:00,VALID,918.575,VALID,0,VALID,98.103,VALID,0.0169808,VALID,20.3004,VALID,96,VALID,1.41753,
2004-11-27, 00:30:00,VALID,918.563,VALID,0,VALID,98.1958,VALID,0,VALID,20.2878,VALID,86,VALID,1.67951,
2004-11-27, 00:31:00,VALID,918.556,VALID,0,VALID,98.2912,VALID,0,VALID,20.2883,VALID,107,VALID,1.67511,
2004-11-27, 00:32:00,VALID,918.542,VALID,0,VALID,98.3344,VALID,-0.0169808,VALID,20.2918,VALID,85,VALID,1.35859,
2004-11-27, 00:33:00,VALID,918.557,VALID,0,VALID,98.4235,VALID,0,VALID,20.2652,VALID,96,VALID,1.34502,
2004-11-27, 00:34:00,VALID,918.561,VALID,0,VALID,98.2238,VALID,0,VALID,20.2883,VALID,114,VALID,2.75018,
2004-11-27, 00:35:00,VALID,918.56,VALID,0,VALID,98.0064,VALID,0,VALID,20.3559,VALID,101,VALID,1.02489,
2004-11-27, 00:36:00,VALID,918.564,VALID,0,VALID,97.8487,VALID,0,VALID,20.3984,VALID,116,VALID,1.54334,
2004-11-27, 00:37:00,VALID,918.55,VALID,0,VALID,97.7584,VALID,0,VALID,20.4013,VALID,114,VALID,1.65909,
2004-11-27, 00:38:00,VALID,918.554,VALID,0,VALID,97.6007,VALID,0,VALID,20.414,VALID,117,VALID,1.78423,
2004-11-27, 00:39:00,VALID,918.547,VALID,0,VALID,97.4748,VALID,0,VALID,20.4433,VALID,103,VALID,1.58535,
2004-11-27, 00:40:00,VALID,918.534,VALID,0,VALID,97.2917,VALID,0,VALID,20.4557,VALID,117,VALID,1.8631,
2004-11-27, 00:41:00,VALID,918.523,VALID,0,VALID,97.2434,VALID,0.0169808,VALID,20.4719,VALID,105,VALID,1.31233,
2004-11-27, 00:42:00,VALID,918.517,VALID,0,VALID,97.3057,VALID,0.0169808,VALID,20.4848,VALID,112,VALID,1.1021,
2004-11-27, 00:43:00,VALID,918.51,VALID,0,VALID,97.3477,VALID,0.0169808,VALID,20.4724,VALID,110,VALID,1.44513,
2004-11-27, 00:44:00,VALID,918.5,VALID,0,VALID,97.4011,VALID,0,VALID,20.4463,VALID,100,VALID,1.28906,
2004-11-27, 00:45:00,VALID,918.493,VALID,0,VALID,97.4799,VALID,0,VALID,20.4431,VALID,110,VALID,1.0041,
2004-11-27, 00:46:00,VALID,918.476,VALID,0,VALID,97.5969,VALID,-0.0169808,VALID,20.4143,VALID,78,VALID,0.79988,
2004-11-27, 00:47:00,VALID,918.462,VALID,0,VALID,97.719,VALID,0,VALID,20.4013,VALID,70,VALID,1.06123,
2004-11-27, 00:48:00,VALID,918.464,VALID,0,VALID,97.836,VALID,0.0169808,VALID,20.3621,VALID,87,VALID,0.975586,
2004-11-27, 00:49:00,VALID,918.468,VALID,0,VALID,97.8741,VALID,0.0169808,VALID,20.3464,VALID,100,VALID,1.26155,
2004-11-27, 00:50:00,VALID,918.447,VALID,0,VALID,97.8055,VALID,0.0339617,VALID,20.3424,VALID,95,VALID,1.33594,
2004-11-27, 00:51:00,VALID,918.427,VALID,0,VALID,97.7737,VALID,0.0169808,VALID,20.3424,VALID,98,VALID,1.04869,
2004-11-27, 00:52:00,VALID,918.404,VALID,0,VALID,97.7215,VALID,0,VALID,20.3429,VALID,102,VALID,1.03051,
2004-11-27, 00:53:00,VALID,918.398,VALID,0,VALID,97.6516,VALID,0.0169808,VALID,20.3367,VALID,93,VALID,1.25434,
2004-11-27, 00:54:00,VALID,918.403,VALID,0,VALID,97.6656,VALID,0,VALID,20.3367,VALID,79,VALID,0.972852,
2004-11-27, 00:55:00,VALID,918.376,VALID,0,VALID,97.7304,VALID,0.0169808,VALID,20.327,VALID,67,VALID,1.23867,
2004-11-27, 00:56:00,VALID,918.359,VALID,0,VALID,97.7686,VALID,0,VALID,20.3238,VALID,58,VALID,1.01944,
2004-11-27, 00:57:00,VALID,918.348,VALID,0,VALID,97.9212,VALID,0,VALID,20.2816,VALID,65,VALID,1.46354,
2004-11-27, 00:58:00,VALID,918.343,VALID,0,VALID,97.9504,VALID,0,VALID,20.2756,VALID,74,VALID,1.54036,
2004-11-27, 00:59:00,VALID,918.323,VALID,0,VALID,97.9428,VALID,0,VALID,20.2915,VALID,76,VALID,1.4593,
2004-11-27, 01:00:00,VALID,918.318,VALID,0,VALID,97.864,VALID,0.0169808,VALID,20.2878,VALID,87,VALID,1.41206,
2004-11-27, 01:01:00,VALID,918.31,VALID,0,VALID,97.8169,VALID,0,VALID,20.3111,VALID,99,VALID,1.62997,
2004-11-27, 01:02:00,VALID,918.299,VALID,0,VALID,97.7622,VALID,-0.0679233,VALID,20.3286,VALID,86,VALID,1.28452,
2004-11-27, 01:03:00,VALID,918.29,VALID,0,VALID,97.7559,VALID,-0.0849042,VALID,20.3281,VALID,99,VALID,1.17489,
2004-11-27, 01:04:00,VALID,918.271,VALID,0,VALID,97.7966,VALID,-0.101885,VALID,20.3216,VALID,92,VALID,1.04973,
2004-11-27, 01:05:00,VALID,918.262,VALID,0,VALID,97.8983,VALID,-0.0849042,VALID,20.3124,VALID,93,VALID,0.87035,
2004-11-27, 01:06:00,VALID,918.248,VALID,0,VALID,97.9644,VALID,-0.0849042,VALID,20.2761,VALID,91,VALID,1.31938,
2004-11-27, 01:07:00,VALID,918.24,VALID,0,VALID,97.9682,VALID,-0.0509425,VALID,20.2635,VALID,87,VALID,1.36357,
2004-11-27, 01:08:00,VALID,918.215,VALID,0,VALID,97.9606,VALID,-0.0849042,VALID,20.2669,VALID,97,VALID,1.41697,
2004-11-27, 01:09:00,VALID,918.205,VALID,0,VALID,97.9555,VALID,-0.0679233,VALID,20.2505,VALID,107,VALID,1.0878,
2004-11-27, 01:10:00,VALID,918.176,VALID,0,VALID,97.9542,VALID,-0.0849042,VALID,20.2605,VALID,87,VALID,1.19893,
2004-11-27, 01:11:00,VALID,918.162,VALID,0,VALID,97.9924,VALID,-0.0849042,VALID,20.257,VALID,73,VALID,1.46132,
2004-11-27, 01:12:00,VALID,918.137,VALID,0,VALID,97.9975,VALID,-0.0509425,VALID,20.2476,VALID,58,VALID,1.29818,
2004-11-27, 01:13:00,VALID,918.116,VALID,0,VALID,98.0153,VALID,-0.0849042,VALID,20.2446,VALID,62,VALID,1.41246,
2004-11-27, 01:14:00,VALID,918.096,VALID,0,VALID,97.9352,VALID,-0.0849042,VALID,20.2341,VALID,56,VALID,1.51793,
2004-11-27, 01:15:00,VALID,918.091,VALID,0,VALID,97.8703,VALID,-0.0509425,VALID,20.2309,VALID,72,VALID,1.68521,
2004-11-27, 01:16:00,VALID,918.081,VALID,0,VALID,97.5588,VALID,-0.0849042,VALID,20.2801,VALID,75,VALID,1.34925,
2004-11-27, 01:17:00,VALID,918.049,VALID,0,VALID,97.4214,VALID,0.0339617,VALID,20.3009,VALID,84,VALID,1.57012,
2004-11-27, 01:18:00,VALID,918.047,VALID,0,VALID,97.3045,VALID,0.0339617,VALID,20.3203,VALID,94,VALID,1.14983,
2004-11-27, 01:19:00,VALID,918.036,VALID,0,VALID,97.2294,VALID,0.0169808,VALID,20.3335,VALID,108,VALID,1.30618,
2004-11-27, 01:20:00,VALID,918.038,VALID,0,VALID,97.1786,VALID,0.0339617,VALID,20.3491,VALID,91,VALID,0.978516,
2004-11-27, 01:21:00,VALID,918.045,VALID,0,VALID,97.1137,VALID,0.0169808,VALID,20.3559,VALID,89,VALID,0.983789,
2004-11-27, 01:22:00,VALID,918.032,VALID,0,VALID,97.1709,VALID,0,VALID,20.3365,VALID,94,VALID,1.24888,
2004-11-27, 01:23:00,VALID,918.02,VALID,0,VALID,97.2078,VALID,0.0339617,VALID,20.3327,VALID,112,VALID,1.61445,
2004-11-27, 01:24:00,VALID,917.989,VALID,0,VALID,97.1722,VALID,0.0509425,VALID,20.3586,VALID,96,VALID,1.47283,
2004-11-27, 01:25:00,VALID,917.971,VALID,0,VALID,97.0044,VALID,0.0679233,VALID,20.3911,VALID,105,VALID,1.34965,
2004-11-27, 01:26:00,VALID,917.951,VALID,0,VALID,96.9611,VALID,0.0169808,VALID,20.4043,VALID,109,VALID,1.40643,
2004-11-27, 01:27:00,VALID,917.936,VALID,0,VALID,96.8746,VALID,0.0169808,VALID,20.4043,VALID,109,VALID,1.43078,
2004-11-27, 01:28:00,VALID,917.902,VALID,0,VALID,96.7907,VALID,0.0339617,VALID,20.4205,VALID,116,VALID,1.45508,
2004-11-27, 01:29:00,VALID,917.887,VALID,0,VALID,96.6788,VALID,0.0339617,VALID,20.4466,VALID,85,VALID,0.829613,
2004-11-27, 01:30:00,VALID,917.861,VALID,0,VALID,96.764,VALID,0.0679233,VALID,20.4391,VALID,108,VALID,1.64082,
2004-11-27, 01:31:00,VALID,917.818,VALID,0,VALID,96.7818,VALID,0,VALID,20.4331,VALID,115,VALID,1.43083,
2004-11-27, 01:32:00,VALID,917.794,VALID,0,VALID,96.7424,VALID,0.0339617,VALID,20.4393,VALID,122,VALID,1.91957,
2004-11-27, 01:33:00,VALID,917.766,VALID,0,VALID,96.689,VALID,0.0679233,VALID,20.459,VALID,130,VALID,1.51886,
2004-11-27, 01:34:00,VALID,917.749,VALID,0,VALID,96.6394,VALID,0.0339617,VALID,20.4654,VALID,126,VALID,1.74771,
2004-11-27, 01:35:00,VALID,917.742,VALID,0,VALID,96.6814,VALID,0.0509425,VALID,20.4493,VALID,122,VALID,1.48642,
2004-11-27, 01:36:00,VALID,917.732,VALID,0,VALID,96.7767,VALID,0.0339617,VALID,20.4463,VALID,136,VALID,1.68073,
2004-11-27, 01:37:00,VALID,917.713,VALID,0,VALID,96.7869,VALID,0.0169808,VALID,20.4304,VALID,143,VALID,1.32831,
2004-11-27, 01:38:00,VALID,917.702,VALID,0,VALID,96.7221,VALID,0.0849042,VALID,20.446,VALID,143,VALID,1.54545,
2004-11-27, 01:39:00,VALID,917.671,VALID,0,VALID,96.5122,VALID,0.0339617,VALID,20.4555,VALID,128,VALID,2.27969,
2004-11-27, 01:40:00,VALID,917.662,VALID,0,VALID,96.3304,VALID,0.0679233,VALID,20.4719,VALID,131,VALID,1.84137,
2004-11-27, 01:41:00,VALID,917.664,VALID,0,VALID,96.3088,VALID,0.0169808,VALID,20.4848,VALID,135,VALID,1.89787,
2004-11-27, 01:42:00,VALID,917.65,VALID,0,VALID,96.3177,VALID,0.0339617,VALID,20.4982,VALID,126,VALID,1.72965,
2004-11-27, 01:43:00,VALID,917.623,VALID,0,VALID,96.3075,VALID,0.0169808,VALID,20.4848,VALID,132,VALID,1.92842,
2004-11-27, 01:44:00,VALID,917.605,VALID,0,VALID,96.3724,VALID,0.0169808,VALID,20.4818,VALID,124,VALID,1.41443,
2004-11-27, 01:45:00,VALID,917.597,VALID,0,VALID,96.4627,VALID,0,VALID,20.4361,VALID,126,VALID,1.57422,
2004-11-27, 01:46:00,VALID,917.576,VALID,0,VALID,96.5504,VALID,0.0339617,VALID,20.3973,VALID,125,VALID,1.60213,
2004-11-27, 01:47:00,VALID,917.546,VALID,0,VALID,96.6165,VALID,-0.0509425,VALID,20.39,VALID,132,VALID,1.49695,
2004-11-27, 01:48:00,VALID,917.534,VALID,0,VALID,96.6267,VALID,-0.0339617,VALID,20.3536,VALID,128,VALID,1.54535,
2004-11-27, 01:49:00,VALID,917.52,VALID,0,VALID,96.6661,VALID,-0.0509425,VALID,20.3507,VALID,124,VALID,1.61644,
2004-11-27, 01:50:00,VALID,917.5,VALID,0,VALID,96.6254,VALID,-0.0849042,VALID,20.3308,VALID,123,VALID,1.41477,
2004-11-27, 01:51:00,VALID,917.492,VALID,0,VALID,96.5936,VALID,-0.0849042,VALID,20.3345,VALID,119,VALID,1.25957,
2004-11-27, 01:52:00,VALID,917.488,VALID,0,VALID,96.5593,VALID,-0.0509425,VALID,20.3216,VALID,129,VALID,1.16635,
2004-11-27, 01:53:00,VALID,917.485,VALID,0,VALID,96.525,VALID,-0.0509425,VALID,20.3157,VALID,139,VALID,1.38945,
2004-11-27, 01:54:00,VALID,917.496,VALID,0,VALID,96.5428,VALID,-0.0849042,VALID,20.3025,VALID,139,VALID,1.15305,
2004-11-27, 01:55:00,VALID,917.496,VALID,0,VALID,96.5059,VALID,-0.0849042,VALID,20.2963,VALID,127,VALID,1.01453,
2004-11-27, 01:56:00,VALID,917.48,VALID,0,VALID,96.5898,VALID,-0.0849042,VALID,20.2734,VALID,130,VALID,0.648801,
2004-11-27, 01:57:00,VALID,917.488,VALID,0,VALID,96.6661,VALID,-0.0679233,VALID,20.2409,VALID,118,VALID,0.835938,
2004-11-27, 01:58:00,VALID,917.482,VALID,0,VALID,96.7945,VALID,-0.0679233,VALID,20.2247,VALID,139,VALID,1.2182,
2004-11-27, 01:59:00,VALID,917.489,VALID,0,VALID,96.6712,VALID,-0.101885,VALID,20.2448,VALID,132,VALID,0.963194,
2004-11-27, 02:00:00,VALID,917.495,VALID,0,VALID,96.5796,VALID,-0.0679233,VALID,20.2185,VALID,95,VALID,0.947976,
2004-11-27, 02:01:00,VALID,917.49,VALID,0,VALID,96.7526,VALID,-0.0679233,VALID,20.2061,VALID,103,VALID,1.03057,
2004-11-27, 02:02:00,VALID,917.489,VALID,0,VALID,96.8886,VALID,-0.101885,VALID,20.1641,VALID,142,VALID,1.21657,
2004-11-27, 02:03:00,VALID,917.493,VALID,0,VALID,97.129,VALID,-0.0679233,VALID,20.1385,VALID,137,VALID,1.43926,
2004-11-27, 02:04:00,VALID,917.481,VALID,0,VALID,97.1748,VALID,-0.0849042,VALID,20.1484,VALID,131,VALID,1.30831,
2004-11-27, 02:05:00,VALID,917.475,VALID,0,VALID,97.101,VALID,-0.101885,VALID,20.1579,VALID,117,VALID,0.698633,
2004-11-27, 02:06:00,VALID,917.456,VALID,0,VALID,97.1188,VALID,-0.0679233,VALID,20.1288,VALID,99,VALID,0.772266,
2004-11-27, 02:07:00,VALID,917.441,VALID,0,VALID,97.2841,VALID,-0.0849042,VALID,20.1129,VALID,119,VALID,1.07793,
2004-11-27, 02:08:00,VALID,917.435,VALID,0,VALID,97.349,VALID,-0.0849042,VALID,20.0903,VALID,115,VALID,0.474019,
2004-11-27, 02:09:00,VALID,917.436,VALID,0,VALID,97.5015,VALID,-0.0679233,VALID,20.0605,VALID,123,VALID,1.37147,
2004-11-27, 02:10:00,VALID,917.426,VALID,0,VALID,97.41,VALID,-0.0849042,VALID,20.0476,VALID,107,VALID,0.651526,
2004-11-27, 02:11:00,VALID,917.422,VALID,0,VALID,97.4952,VALID,-0.0679233,VALID,20.0187,VALID,119,VALID,1.11319,
2004-11-27, 02:12:00,VALID,917.416,VALID,0,VALID,97.7622,VALID,-0.0679233,VALID,19.9832,VALID,131,VALID,1.12557,
2004-11-27, 02:13:00,VALID,917.414,VALID,0,VALID,98.0572,VALID,-0.0849042,VALID,19.9762,VALID,136,VALID,1.30851,
2004-11-27, 02:14:00,VALID,917.385,VALID,0,VALID,98.0763,VALID,-0.0169808,VALID,19.9857,VALID,151,VALID,1.05766,
2004-11-27, 02:15:00,VALID,917.378,VALID,0,VALID,98.0878,VALID,-0.101885,VALID,19.9964,VALID,150,VALID,1.40838,
2004-11-27, 02:16:00,VALID,917.373,VALID,0,VALID,98.1513,VALID,-0.0509425,VALID,20.0058,VALID,148,VALID,1.74947,
2004-11-27, 02:17:00,VALID,917.378,VALID,0,VALID,98.1717,VALID,0.0169808,VALID,20.0202,VALID,139,VALID,1.50877,
2004-11-27, 02:18:00,VALID,917.392,VALID,0,VALID,98.0763,VALID,0.0169808,VALID,20.0205,VALID,139,VALID,1.18159,
2004-11-27, 02:19:00,VALID,917.4,VALID,0,VALID,98.1679,VALID,0.0509425,VALID,20.014,VALID,151,VALID,1.4133,
2004-11-27, 02:20:00,VALID,917.413,VALID,0,VALID,98.2963,VALID,0,VALID,20.0011,VALID,143,VALID,1.9749,
2004-11-27, 02:21:00,VALID,917.407,VALID,0,VALID,98.3052,VALID,0,VALID,20.0108,VALID,152,VALID,2.04414,
2004-11-27, 02:22:00,VALID,917.4,VALID,0,VALID,98.2531,VALID,0.0169808,VALID,20.0371,VALID,149,VALID,1.70789,
2004-11-27, 02:23:00,VALID,917.41,VALID,0,VALID,98.1971,VALID,0,VALID,20.0498,VALID,139,VALID,1.82404,
2004-11-27, 02:24:00,VALID,917.4,VALID,0,VALID,98.1666,VALID,0.0169808,VALID,20.0495,VALID,139,VALID,1.61861,
2004-11-27, 02:25:00,VALID,917.405,VALID,0,VALID,98.1272,VALID,0.0509425,VALID,20.0329,VALID,139,VALID,1.72923,
2004-11-27, 02:26:00,VALID,917.402,VALID,0,VALID,98.1246,VALID,0.0509425,VALID,20.0364,VALID,143,VALID,1.66101,
2004-11-27, 02:27:00,VALID,917.398,VALID,0,VALID,98.1081,VALID,0.0509425,VALID,20.0366,VALID,138,VALID,1.61024,
2004-11-27, 02:28:00,VALID,917.394,VALID,0,VALID,98.089,VALID,0.0509425,VALID,20.0431,VALID,136,VALID,1.25604,
2004-11-27, 02:29:00,VALID,917.396,VALID,0,VALID,98.0623,VALID,0.0169808,VALID,20.0498,VALID,137,VALID,1.11871,
2004-11-27, 02:30:00,VALID,917.4,VALID,0,VALID,98.0738,VALID,0,VALID,20.0371,VALID,134,VALID,1.3971,
2004-11-27, 02:31:00,VALID,917.398,VALID,0,VALID,98.1285,VALID,0.0339617,VALID,20.0307,VALID,139,VALID,1.54249,
2004-11-27, 02:32:00,VALID,917.387,VALID,0,VALID,98.1386,VALID,-0.0849042,VALID,20.0287,VALID,141,VALID,1.33976,
2004-11-27, 02:33:00,VALID,917.383,VALID,0,VALID,98.0712,VALID,-0.0849042,VALID,20.022,VALID,140,VALID,1.11217,
2004-11-27, 02:34:00,VALID,917.385,VALID,0,VALID,98.056,VALID,-0.0849042,VALID,20.0384,VALID,149,VALID,1.62891,
2004-11-27, 02:35:00,VALID,917.367,VALID,0,VALID,98.0102,VALID,-0.101885,VALID,20.0446,VALID,147,VALID,1.10356,
2004-11-27, 02:36:00,VALID,917.357,VALID,0,VALID,97.9466,VALID,-0.0849042,VALID,20.0645,VALID,139,VALID,1.34121,
2004-11-27, 02:37:00,VALID,917.358,VALID,0,VALID,97.8614,VALID,-0.101885,VALID,20.0704,VALID,146,VALID,1.01505,
2004-11-27, 02:38:00,VALID,917.352,VALID,0,VALID,97.8385,VALID,-0.0679233,VALID,20.0866,VALID,142,VALID,1.50817,
2004-11-27, 02:39:00,VALID,917.344,VALID,0,VALID,97.766,VALID,-0.0849042,VALID,20.1092,VALID,148,VALID,1.40955,
2004-11-27, 02:40:00,VALID,917.344,VALID,0,VALID,97.7228,VALID,-0.0679233,VALID,20.1191,VALID,155,VALID,0.811384,
2004-11-27, 02:41:00,VALID,917.338,VALID,0,VALID,97.6834,VALID,-0.0849042,VALID,20.1189,VALID,118,VALID,0.936942,
2004-11-27, 02:42:00,VALID,917.338,VALID,0,VALID,97.5473,VALID,-0.0849042,VALID,20.1154,VALID,83,VALID,0.773628,
2004-11-27, 02:43:00,VALID,917.326,VALID,0,VALID,97.5906,VALID,-0.0679233,VALID,20.0704,VALID,73,VALID,0.610795,
2004-11-27, 02:44:00,VALID,917.304,VALID,0,VALID,97.8462,VALID,-0.101885,VALID,20.0508,VALID,99,VALID,0.540179,
2004-11-27, 02:45:00,VALID,917.299,VALID,0,VALID,98.0445,VALID,-0.101885,VALID,20.0543,VALID,139,VALID,0.59003,
2004-11-27, 02:46:00,VALID,917.284,VALID,0,VALID,98.1374,VALID,-0.0849042,VALID,20.0413,VALID,144,VALID,0.793713,
2004-11-27, 02:47:00,VALID,917.259,VALID,0,VALID,98.1857,VALID,-0.101885,VALID,20.0381,VALID,152,VALID,0.599019,
2004-11-27, 02:48:00,VALID,917.237,VALID,0,VALID,98.1793,VALID,-0.0849042,VALID,20.0446,VALID,152,VALID,0.772135,
2004-11-27, 02:49:00,VALID,917.221,VALID,0,VALID,98.1463,VALID,-0.0849042,VALID,20.0478,VALID,135,VALID,1.13372,
2004-11-27, 02:50:00,VALID,917.204,VALID,0,VALID,97.9835,VALID,-0.0849042,VALID,20.0448,VALID,122,VALID,0.780859,
2004-11-27, 02:51:00,VALID,917.189,VALID,0,VALID,97.8996,VALID,-0.0849042,VALID,20.0448,VALID,122,VALID,1.03462,
2004-11-27, 02:52:00,VALID,917.177,VALID,0,VALID,98.0127,VALID,-0.101885,VALID,20.051,VALID,143,VALID,1.35975,
2004-11-27, 02:53:00,VALID,917.156,VALID,0,VALID,98.0967,VALID,-0.101885,VALID,20.0607,VALID,157,VALID,1.88039,
2004-11-27, 02:54:00,VALID,917.157,VALID,0,VALID,97.986,VALID,-0.0679233,VALID,20.0734,VALID,147,VALID,1.64755,
2004-11-27, 02:55:00,VALID,917.166,VALID,0,VALID,97.9326,VALID,-0.0849042,VALID,20.0992,VALID,158,VALID,0.857851,
2004-11-27, 02:56:00,VALID,917.157,VALID,0,VALID,97.9046,VALID,-0.0509425,VALID,20.1027,VALID,99,VALID,0.613672,
2004-11-27, 02:57:00,VALID,917.148,VALID,0,VALID,97.911,VALID,-0.0679233,VALID,20.1194,VALID,145,VALID,1.86937,
2004-11-27, 02:58:00,VALID,917.148,VALID,0,VALID,97.883,VALID,-0.0849042,VALID,20.1221,VALID,132,VALID,0.970567,
2004-11-27, 02:59:00,VALID,917.141,VALID,0,VALID,97.8792,VALID,-0.0169808,VALID,20.1151,VALID,113,VALID,1.11395,
2004-11-27, 03:00:00,VALID,917.123,VALID,0,VALID,97.9288,VALID,-0.0679233,VALID,20.1283,VALID,129,VALID,1.05052,
2004-11-27, 03:01:00,VALID,917.113,VALID,0,VALID,97.8868,VALID,-0.0679233,VALID,20.1348,VALID,114,VALID,1.00278,
2004-11-27, 03:02:00,VALID,917.111,VALID,0,VALID,97.8398,VALID,-0.0509425,VALID,20.1447,VALID,117,VALID,0.704215,
2004-11-27, 03:03:00,VALID,917.114,VALID,0,VALID,97.7877,VALID,-0.0169808,VALID,20.1407,VALID,153,VALID,0.44407,
2004-11-27, 03:04:00,VALID,917.119,VALID,0,VALID,97.7355,VALID,-0.0509425,VALID,20.1445,VALID,137,VALID,0.628125,
2004-11-27, 03:05:00,VALID,917.134,VALID,0,VALID,97.6834,VALID,-0.0679233,VALID,20.1638,VALID,149,VALID,0.727679,
2004-11-27, 03:06:00,VALID,917.145,VALID,0,VALID,97.6516,VALID,-0.0339617,VALID,20.1604,VALID,170,VALID,0.688281,
2004-11-27, 03:07:00,VALID,917.163,VALID,0,VALID,97.6516,VALID,-0.0339617,VALID,20.1671,VALID,158,VALID,0.914608,
2004-11-27, 03:08:00,VALID,917.169,VALID,0,VALID,97.6402,VALID,-0.0339617,VALID,20.1735,VALID,164,VALID,0.9,
2004-11-27, 03:09:00,VALID,917.153,VALID,0,VALID,97.663,VALID,-0.0679233,VALID,20.1671,VALID,154,VALID,1.04315,
2004-11-27, 03:10:00,VALID,917.172,VALID,0,VALID,97.6656,VALID,-0.0509425,VALID,20.1802,VALID,144,VALID,0.891992,
2004-11-27, 03:11:00,VALID,917.159,VALID,0,VALID,97.6363,VALID,-0.0509425,VALID,20.1671,VALID,138,VALID,1.17969,
2004-11-27, 03:12:00,VALID,917.159,VALID,0,VALID,97.4545,VALID,-0.0679233,VALID,20.18,VALID,134,VALID,1.24964,
2004-11-27, 03:13:00,VALID,917.159,VALID,0,VALID,97.279,VALID,-0.0339617,VALID,20.2061,VALID,127,VALID,1.07493,
2004-11-27, 03:14:00,VALID,917.155,VALID,0,VALID,97.0946,VALID,-0.0169808,VALID,20.225,VALID,95,VALID,1.10683,
2004-11-27, 03:15:00,VALID,917.154,VALID,0,VALID,96.9904,VALID,-0.0339617,VALID,20.2414,VALID,99,VALID,0.521399,
2004-11-27, 03:16:00,VALID,917.146,VALID,0,VALID,96.9509,VALID,-0.0679233,VALID,20.2573,VALID,80,VALID,0.579427,
2004-11-27, 03:17:00,VALID,917.157,VALID,0,VALID,96.9967,VALID,-0.0679233,VALID,20.2575,VALID,39,VALID,0.680831,
2004-11-27, 03:18:00,VALID,917.139,VALID,0,VALID,97.0298,VALID,-0.0169808,VALID,20.2575,VALID,49,VALID,0.634487,
2004-11-27, 03:19:00,VALID,917.124,VALID,0,VALID,96.9955,VALID,-0.0339617,VALID,20.2575,VALID,41,VALID,0.677912,
2004-11-27, 03:20:00,VALID,917.119,VALID,0,VALID,97.0311,VALID,-0.0679233,VALID,20.2545,VALID,27,VALID,1.08389,
2004-11-27, 03:21:00,VALID,917.113,VALID,0,VALID,97.0984,VALID,-0.0849042,VALID,20.222,VALID,29,VALID,1.22148,
2004-11-27, 03:22:00,VALID,917.108,VALID,0,VALID,97.1608,VALID,-0.0509425,VALID,20.2222,VALID,32,VALID,1.17551,
2004-11-27, 03:23:00,VALID,917.086,VALID,0,VALID,97.2816,VALID,-0.0679233,VALID,20.1899,VALID,33,VALID,0.990057,
2004-11-27, 03:24:00,VALID,917.082,VALID,0,VALID,97.4545,VALID,-0.0849042,VALID,20.1604,VALID,33,VALID,0.753736,
2004-11-27, 03:25:00,VALID,917.076,VALID,0,VALID,97.5232,VALID,-0.0509425,VALID,20.1412,VALID,44,VALID,0.697311,
2004-11-27, 03:26:00,VALID,917.085,VALID,0,VALID,97.5804,VALID,-0.0509425,VALID,20.1445,VALID,52,VALID,0.486979,
2004-11-27, 03:27:00,VALID,917.091,VALID,0,VALID,97.6046,VALID,-0.0679233,VALID,20.131,VALID,56,VALID,0.656994,
2004-11-27, 03:28:00,VALID,917.091,VALID,0,VALID,97.6796,VALID,-0.0169808,VALID,20.1181,VALID,62,VALID,1.06979,
2004-11-27, 03:29:00,VALID,917.084,VALID,0,VALID,97.7304,VALID,-0.0509425,VALID,20.1124,VALID,69,VALID,1.1069,
2004-11-27, 03:30:00,VALID,917.089,VALID,0,VALID,97.6872,VALID,-0.0169808,VALID,20.1253,VALID,77,VALID,0.847245,
2004-11-27, 03:31:00,VALID,917.08,VALID,0,VALID,97.6567,VALID,0,VALID,20.1248,VALID,77,VALID,0.65253,
2004-11-27, 03:32:00,VALID,917.066,VALID,0,VALID,97.6185,VALID,-0.0169808,VALID,20.1176,VALID,76,VALID,0.801258,